GW2100 Weather Reports


Display with metric or nautical units.
time (UTC)temp
F
wind
direction
speed
MPH
gust
MPH
rain 1hr
in
rain 24hr
in
rain mn
in
humidity
%
barometer
mb
20260906210503 90 149 11.0 25.0 0.00 0.00 0.00 32 1012.9
20260906210003 90 141 17.0 25.0 0.00 0.00 0.00 31 1012.9
20260906205503 90 145 12.0 24.0 0.00 0.00 0.00 31 1013.0
20260906205003 91 157 11.0 25.0 0.00 0.00 0.00 31 1013.0
20260906204503 90 148 13.0 25.0 0.00 0.00 0.00 32 1013.1
20260906204003 90 146 16.0 25.0 0.00 0.00 0.00 32 1013.1
20260906203503 90 154 11.0 30.0 0.00 0.00 0.00 32 1013.0
20260906203004 90 137 16.0 30.0 0.00 0.00 0.00 33 1013.0
20260906202503 90 143 17.0 29.0 0.00 0.00 0.00 33 1013.1
20260906202003 90 147 14.0 28.0 0.00 0.00 0.00 33 1013.0
20260906201503 90 149 13.0 28.0 0.00 0.00 0.00 32 1013.0
20260906201003 90 149 14.0 30.0 0.00 0.00 0.00 33 1013.1
20260906200503 90 130 19.0 30.0 0.00 0.00 0.00 33 1013.1
20260906200005 90 138 17.0 26.0 0.00 0.00 0.00 33 1013.1
20260906195503 90 138 17.0 26.0 0.00 0.00 0.00 33 1013.2
20260906195003 89 139 17.0 26.0 0.00 0.00 0.00 33 1013.2
20260906194503 90 143 17.0 30.0 0.00 0.00 0.00 33 1013.3
20260906194004 90 123 18.0 30.0 0.00 0.00 0.00 33 1013.3
20260906193503 90 138 17.0 30.0 0.00 0.00 0.00 34 1013.3
20260906193003 90 140 16.0 26.0 0.00 0.00 0.00 33 1013.3
20260906192503 89 141 16.0 26.0 0.00 0.00 0.00 33 1013.3
20260906192003 89 139 19.0 26.0 0.00 0.00 0.00 33 1013.3
20260906191503 89 148 12.0 25.0 0.00 0.00 0.00 33 1013.4
20260906191003 90 147 14.0 25.0 0.00 0.00 0.00 33 1013.5
20260906190503 90 145 16.0 25.0 0.00 0.00 0.00 33 1013.4
20260906190003 90 136 16.0 25.0 0.00 0.00 0.00 33 1013.6
20260906185503 89 138 16.0 24.0 0.00 0.00 0.00 34 1013.6
20260906185003 89 137 16.0 26.0 0.00 0.00 0.00 34 1013.6
20260906184503 90 148 13.0 26.0 0.00 0.00 0.00 33 1013.7
20260906184003 90 139 15.0 26.0 0.00 0.00 0.00 33 1013.7
20260906183503 90 146 15.0 25.0 0.00 0.00 0.00 33 1013.8
20260906183003 89 143 17.0 24.0 0.00 0.00 0.00 33 1013.8
20260906182503 90 145 14.0 24.0 0.00 0.00 0.00 33 1013.9
20260906182003 90 141 17.0 26.0 0.00 0.00 0.00 33 1014.0
20260906181503 89 142 16.0 26.0 0.00 0.00 0.00 33 1014.0
20260906181003 90 144 14.0 22.0 0.00 0.00 0.00 33 1014.1
20260906180503 89 141 13.0 22.0 0.00 0.00 0.00 33 1014.1
20260906180003 89 152 11.0 22.0 0.00 0.00 0.00 33 1014.1
20260906175503 89 159 7.0 22.0 0.00 0.00 0.00 33 1014.2
20260906175003 89 153 11.0 22.0 0.00 0.00 0.00 33 1014.3
20260906174503 89 149 12.0 22.0 0.00 0.00 0.00 33 1014.3
20260906174003 88 159 9.0 18.0 0.00 0.00 0.00 33 1014.3
20260906173503 88 166 7.0 20.0 0.00 0.00 0.00 34 1014.4
20260906173003 88 161 9.0 20.0 0.00 0.00 0.00 33 1014.4
20260906172503 88 164 8.0 20.0 0.00 0.00 0.00 34 1014.6
20260906172003 88 167 8.0 21.0 0.00 0.00 0.00 34 1014.6
20260906171503 87 162 8.0 22.0 0.00 0.00 0.00 34 1014.7
20260906171003 88 159 10.0 22.0 0.00 0.00 0.00 33 1014.8
20260906170503 88 149 14.0 22.0 0.00 0.00 0.00 34 1014.9
20260906170003 87 150 11.0 20.0 0.00 0.00 0.00 34 1014.9
20260906165503 87 157 11.0 20.0 0.00 0.00 0.00 34 1015.0
20260906165003 87 169 8.0 17.0 0.00 0.00 0.00 34 1015.0
20260906164503 87 164 6.0 17.0 0.00 0.00 0.00 34 1015.1
20260906164003 87 169 8.0 17.0 0.00 0.00 0.00 34 1015.1
20260906163503 87 171 8.0 15.0 0.00 0.00 0.00 34 1015.2
20260906163003 87 164 9.0 16.0 0.00 0.00 0.00 34 1015.2
20260906162503 86 164 7.0 16.0 0.00 0.00 0.00 34 1015.3
20260906162003 86 169 6.0 16.0 0.00 0.00 0.00 34 1015.2
20260906161503 86 169 6.0 16.0 0.00 0.00 0.00 35 1015.2
20260906161002 85 169 7.0 16.0 0.00 0.00 0.00 35 1015.2
20260906160503 85 168 7.0 16.0 0.00 0.00 0.00 35 1015.2
20260906160003 85 168 7.0 22.0 0.00 0.00 0.00 36 1015.2
20260906155503 85 179 10.0 22.0 0.00 0.00 0.00 36 1015.2
20260906155003 84 168 7.0 15.0 0.00 0.00 0.00 36 1015.2
20260906154502 84 167 8.0 22.0 0.00 0.00 0.00 37 1015.2
20260906154003 83 174 10.0 22.0 0.00 0.00 0.00 37 1015.2
20260906153502 83 171 8.0 22.0 0.00 0.00 0.00 38 1015.2
20260906153004 83 174 8.0 22.0 0.00 0.00 0.00 38 1015.0
20260906152502 83 172 7.0 17.0 0.00 0.00 0.00 39 1015.1
20260906152003 83 176 8.0 18.0 0.00 0.00 0.00 39 1015.2
20260906151502 82 180 11.0 20.0 0.00 0.00 0.00 39 1015.2
20260906151003 82 183 11.0 21.0 0.00 0.00 0.00 40 1015.2
20260906150503 82 181 11.0 21.0 0.00 0.00 0.00 41 1015.3
20260906150002 81 176 9.0 21.0 0.00 0.00 0.00 42 1015.4
20260906145502 81 175 10.0 21.0 0.00 0.00 0.00 42 1015.5
20260906145002 81 167 6.0 16.0 0.00 0.00 0.00 42 1015.6
20260906144503 81 174 4.0 12.0 0.00 0.00 0.00 43 1015.6
20260906144003 81 163 5.0 17.0 0.00 0.00 0.00 44 1015.7
20260906143503 80 178 6.0 20.0 0.00 0.00 0.00 45 1015.8
20260906143004 80 188 11.0 20.0 0.00 0.00 0.00 45 1015.7
20260906142503 79 197 11.0 18.0 0.00 0.00 0.00 46 1015.6
20260906142004 78 190 9.0 14.0 0.00 0.00 0.00 48 1015.7
20260906141503 78 190 8.0 13.0 0.00 0.00 0.00 50 1015.8
20260906141003 77 165 4.0 8.0 0.00 0.00 0.00 51 1015.9
20260906140504 77 168 5.0 8.0 0.00 0.00 0.00 52 1015.9
20260906140004 75 166 4.0 10.0 0.00 0.00 0.00 55 1015.8
20260906135504 74 163 4.0 10.0 0.00 0.00 0.00 57 1015.8
20260906135003 74 162 3.0 9.0 0.00 0.00 0.00 59 1015.7
20260906134504 74 141 6.0 9.0 0.00 0.00 0.00 60 1015.6
20260906134004 73 145 6.0 9.0 0.00 0.00 0.00 59 1015.6
20260906133503 72 164 2.0 5.0 0.00 0.00 0.00 62 1015.5
20260906133003 70 163 1.0 6.0 0.00 0.00 0.00 67 1015.5
20260906132504 68 176 3.0 7.0 0.00 0.00 0.00 70 1015.6
20260906132003 67 175 2.0 7.0 0.00 0.00 0.00 75 1015.6
20260906131503 66 140 5.0 8.0 0.00 0.00 0.00 77 1015.7
20260906131003 66 140 5.0 8.0 0.00 0.00 0.00 77 1015.7
20260906130504 65 137 6.0 8.0 0.00 0.00 0.00 78 1015.7
20260906130004 65 129 6.0 7.0 0.00 0.00 0.00 79 1015.7
20260906125504 65 126 5.0 7.0 0.00 0.00 0.00 78 1015.6
20260906125003 66 134 6.0 6.0 0.00 0.00 0.00 76 1015.5
20260906124503 65 144 5.0 6.0 0.00 0.00 0.00 78 1015.4
20260906124003 64 138 5.0 6.0 0.00 0.00 0.00 79 1015.4
20260906123504 64 162 2.0 6.0 0.00 0.00 0.00 81 1015.4
20260906123004 64 137 3.0 5.0 0.00 0.00 0.00 81 1015.4
20260906122504 64 180 2.0 8.0 0.00 0.00 0.00 81 1015.3
20260906122003 64 163 3.0 8.0 0.00 0.00 0.00 81 1015.3
20260906121503 64 145 6.0 8.0 0.00 0.00 0.00 81 1015.3
20260906121004 64 154 3.0 8.0 0.00 0.00 0.00 81 1015.3
20260906120503 65 169 3.0 8.0 0.00 0.00 0.00 80 1015.2
20260906120003 65 146 6.0 8.0 0.00 0.00 0.00 79 1015.2
20260906115503 65 147 3.0 7.0 0.00 0.00 0.00 78 1015.2
20260906115003 65 142 5.0 7.0 0.00 0.00 0.00 78 1015.1
20260906114503 66 148 4.0 7.0 0.00 0.00 0.00 76 1015.1
20260906114003 66 95 3.0 7.0 0.00 0.00 0.00 76 1015.1
20260906113503 67 39 1.0 3.0 0.00 0.00 0.00 75 1015.2
20260906113003 67 211 1.0 3.0 0.00 0.00 0.00 73 1015.1
20260906112503 67 166 1.0 3.0 0.00 0.00 0.00 75 1015.0
20260906112003 68 78 1.0 6.0 0.00 0.00 0.00 73 1015.0
20260906111503 71 114 2.0 7.0 0.00 0.00 0.00 63 1015.0
20260906111003 69 183 3.0 7.0 0.00 0.00 0.00 67 1014.9
20260906110503 66 150 0.0 5.0 0.00 0.00 0.00 77 1015.0
20260906110003 66 65 0.0 2.0 0.00 0.00 0.00 77 1015.0
20260906105503 67 70 1.0 6.0 0.00 0.00 0.00 75 1015.0
20260906105003 68 141 1.0 6.0 0.00 0.00 0.00 70 1015.0
20260906104503 67 193 5.0 8.0 0.00 0.00 0.00 72 1014.9
20260906104003 66 174 2.0 8.0 0.00 0.00 0.00 76 1015.0
20260906103503 67 129 6.0 8.0 0.00 0.00 0.00 76 1015.1
20260906103003 66 157 4.0 7.0 0.00 0.00 0.00 76 1015.1
20260906102503 66 138 5.0 7.0 0.00 0.00 0.00 78 1015.0
20260906102003 68 108 4.0 7.0 0.00 0.00 0.00 72 1015.1
20260906101503 68 178 4.0 6.0 0.00 0.00 0.00 71 1015.0
20260906101003 68 171 3.0 9.0 0.00 0.00 0.00 72 1015.0
20260906100503 66 163 2.0 9.0 0.00 0.00 0.00 77 1015.0
20260906100003 66 136 7.0 10.0 0.00 0.00 0.00 79 1015.1
20260906095503 66 128 6.0 10.0 0.00 0.00 0.00 79 1015.0
20260906095003 67 123 7.0 9.0 0.00 0.00 0.00 75 1015.0
20260906094503 68 137 7.0 9.0 0.00 0.00 0.00 71 1014.9
20260906094003 70 137 7.0 9.0 0.00 0.00 0.00 69 1014.9
20260906093503 77 129 7.0 13.0 0.00 0.00 0.00 56 1015.0
20260906093003 78 202 5.0 13.0 0.00 0.00 0.00 51 1014.8
20260906092503 78 222 4.0 13.0 0.00 0.00 0.00 52 1014.7
20260906092003 78 211 4.0 13.0 0.00 0.00 0.00 53 1014.7
20260906091503 77 220 4.0 9.0 0.00 0.00 0.00 54 1014.7
20260906091003 77 213 4.0 9.0 0.00 0.00 0.00 54 1014.8
20260906090503 77 204 5.0 9.0 0.00 0.00 0.00 53 1014.8
20260906090003 77 209 4.0 9.0 0.00 0.00 0.00 54 1014.7
20260906085503 76 220 1.0 6.0 0.00 0.00 0.00 55 1014.7
20260906085003 76 211 2.0 6.0 0.00 0.00 0.00 56 1014.7
20260906084503 75 200 2.0 6.0 0.00 0.00 0.00 57 1014.7
20260906084003 74 201 2.0 6.0 0.00 0.00 0.00 59 1014.7
20260906083502 73 190 3.0 6.0 0.00 0.00 0.00 62 1014.7
20260906083003 74 287 1.0 8.0 0.00 0.00 0.00 62 1014.7
20260906082503 75 202 3.0 9.0 0.00 0.00 0.00 59 1014.8
20260906082003 74 192 5.0 9.0 0.00 0.00 0.00 59 1014.8
20260906081503 74 191 6.0 8.0 0.00 0.00 0.00 62 1014.8
20260906081003 73 173 3.0 7.0 0.00 0.00 0.00 63 1014.8
20260906080503 72 161 2.0 12.0 0.00 0.00 0.00 65 1014.9
20260906080002 72 176 4.0 12.0 0.00 0.00 0.00 65 1014.9
20260906075503 72 190 8.0 12.0 0.00 0.00 0.00 67 1014.9
20260906075003 71 188 8.0 12.0 0.00 0.00 0.00 69 1015.0
20260906074503 70 188 7.0 12.0 0.00 0.00 0.00 69 1015.0
20260906074003 69 187 7.0 10.0 0.00 0.00 0.00 71 1015.1
20260906073503 68 185 6.0 9.0 0.00 0.00 0.00 72 1015.2
20260906073003 68 182 4.0 8.0 0.00 0.00 0.00 72 1015.2
20260906072503 68 162 3.0 8.0 0.00 0.00 0.00 72 1015.3
20260906072002 69 131 6.0 8.0 0.00 0.00 0.00 71 1015.3
20260906071503 69 131 5.0 7.0 0.00 0.00 0.00 70 1015.3
20260906071003 70 137 5.0 6.0 0.00 0.00 0.00 68 1015.3
20260906070503 71 158 3.0 6.0 0.00 0.00 0.00 67 1015.2
20260906070003 71 175 3.0 7.0 0.00 0.00 0.00 65 1015.1
20260906065503 72 170 3.0 7.0 0.00 0.00 0.00 65 1015.1
20260906065003 74 150 4.0 7.0 0.00 0.00 0.00 61 1015.1
20260906064503 75 171 3.0 5.0 0.00 0.00 0.00 58 1015.2
20260906064003 76 170 2.0 5.0 0.00 0.00 0.00 58 1015.0
20260906063503 77 148 3.0 5.0 0.00 0.00 0.00 56 1015.0
20260906063003 77 135 2.0 5.0 0.00 0.00 0.00 56 1014.9
20260906062503 77 293 0.0 1.0 0.00 0.00 0.00 55 1015.0
20260906062003 77 316 0.0 2.0 0.00 0.00 0.00 55 1014.9
20260906061503 76 322 0.0 3.0 0.00 0.00 0.00 55 1014.8
20260906061003 76 320 2.0 3.0 0.00 0.00 0.00 56 1014.7
20260906060503 75 309 2.0 3.0 0.00 0.00 0.00 56 1014.7
20260906060004 74 305 2.0 3.0 0.00 0.00 0.00 57 1014.7
20260906055503 74 265 1.0 2.0 0.00 0.00 0.00 58 1014.8
20260906055003 74 239 1.0 5.0 0.00 0.00 0.00 59 1014.9
20260906054503 75 263 1.0 5.0 0.00 0.00 0.00 55 1015.0
20260906054003 75 190 2.0 5.0 0.00 0.00 0.00 55 1015.1
20260906053503 74 181 2.0 5.0 0.00 0.00 0.00 54 1015.2
20260906053003 74 173 2.0 5.0 0.00 0.00 0.00 53 1015.3
20260906052503 75 184 3.0 5.0 0.00 0.00 0.00 53 1015.3
20260906052003 75 175 2.0 5.0 0.00 0.00 0.00 53 1015.4
20260906051503 76 168 2.0 5.0 0.00 0.00 0.00 51 1015.4
20260906051003 76 168 2.0 6.0 0.00 0.00 0.00 50 1015.4
20260906050503 76 164 1.0 6.0 0.00 0.00 0.00 52 1015.4
20260906050003 75 155 3.0 6.0 0.00 0.00 0.00 54 1015.4
20260906045502 75 152 3.0 7.0 0.00 0.00 0.00 56 1015.4
20260906045003 75 147 4.0 7.0 0.00 0.00 0.00 54 1015.5
20260906044503 76 142 6.0 7.0 0.00 0.00 0.00 53 1015.6
20260906044003 75 139 5.0 6.0 0.00 0.00 0.00 53 1015.6
20260906043503 74 159 3.0 8.0 0.00 0.00 0.00 57 1015.5
20260906043003 74 178 5.0 8.0 0.00 0.00 0.00 59 1015.5
20260906042502 78 192 5.0 8.0 0.00 0.00 0.00 49 1015.3
20260906042002 78 270 3.0 6.0 0.00 0.00 0.00 47 1015.0
20260906041504 78 282 3.0 5.0 0.00 0.00 0.00 47 1015.0
20260906041004 77 314 3.0 5.0 0.00 0.00 0.00 49 1015.0
20260906040503 77 336 1.0 3.0 0.00 0.00 0.00 50 1015.1
20260906040003 79 17 0.0 3.0 0.00 0.00 0.00 46 1015.2
20260906035504 80 292 2.0 5.0 0.00 0.00 0.00 44 1015.2
20260906035004 80 283 3.0 5.0 0.00 0.00 0.00 44 1015.2
20260906034503 79 283 3.0 5.0 0.00 0.00 0.00 44 1015.2
20260906034004 79 287 4.0 5.0 0.00 0.00 0.00 46 1015.2
20260906033503 79 287 3.0 5.0 0.00 0.00 0.00 48 1015.3
20260906033003 80 269 3.0 5.0 0.00 0.00 0.00 45 1015.2
20260906032503 79 211 1.0 3.0 0.00 0.00 0.00 46 1015.2
20260906032004 79 185 1.0 3.0 0.00 0.00 0.00 45 1015.3
20260906031504 81 166 0.0 7.0 0.00 0.00 0.00 42 1015.3
20260906031003 81 179 2.0 7.0 0.00 0.00 0.00 41 1015.1
20260906030504 80 183 5.0 7.0 0.00 0.00 0.00 45 1015.1
20260906030004 80 180 4.0 7.0 0.00 0.00 0.00 45 1015.0
20260906025503 80 176 3.0 6.0 0.00 0.00 0.00 46 1015.0
20260906025004 80 181 3.0 5.0 0.00 0.00 0.00 45 1015.0
20260906024504 81 185 4.0 5.0 0.00 0.00 0.00 43 1014.9
20260906024004 81 197 3.0 5.0 0.00 0.00 0.00 43 1014.8
20260906023503 81 199 3.0 5.0 0.00 0.00 0.00 43 1014.8
20260906023004 81 208 3.0 6.0 0.00 0.00 0.00 43 1014.7
20260906022503 81 221 2.0 7.0 0.00 0.00 0.00 43 1014.7
20260906022004 81 227 3.0 7.0 0.00 0.00 0.00 45 1014.6
20260906021503 81 235 4.0 7.0 0.00 0.00 0.00 46 1014.5
20260906021003 81 233 3.0 7.0 0.00 0.00 0.00 47 1014.5
20260906020504 81 241 3.0 7.0 0.00 0.00 0.00 48 1014.4
20260906020004 81 245 3.0 5.0 0.00 0.00 0.00 49 1014.4
20260906015503 81 228 2.0 6.0 0.00 0.00 0.00 49 1014.3
20260906015004 81 253 3.0 6.0 0.00 0.00 0.00 49 1014.3
20260906014503 81 232 3.0 7.0 0.00 0.00 0.00 50 1014.2
20260906014004 81 206 4.0 8.0 0.00 0.00 0.00 50 1014.3
20260906013504 82 201 5.0 8.0 0.00 0.00 0.00 49 1014.2
20260906013004 81 192 6.0 8.0 0.00 0.00 0.00 49 1014.3
20260906012504 81 200 5.0 8.0 0.00 0.00 0.00 49 1014.3
20260906012004 81 209 4.0 7.0 0.00 0.00 0.00 49 1014.3
20260906011503 82 211 3.0 9.0 0.00 0.00 0.00 47 1014.4
20260906011004 82 203 5.0 9.0 0.00 0.00 0.00 46 1014.4
20260906010504 82 203 6.0 9.0 0.00 0.00 0.00 45 1014.4
20260906010004 82 205 6.0 9.0 0.00 0.00 0.00 44 1014.4
20260906005504 83 197 7.0 9.0 0.00 0.00 0.00 42 1014.5
20260906005003 83 189 6.0 8.0 0.00 0.00 0.00 41 1014.6
20260906004503 83 175 4.0 12.0 0.00 0.00 0.00 41 1014.5
20260906004003 83 157 5.0 15.0 0.00 0.00 0.00 40 1014.5
20260906003503 83 157 6.0 21.0 0.00 0.00 0.00 39 1014.6
20260906003003 84 148 10.0 21.0 0.00 0.00 0.00 38 1014.8
20260906002503 84 135 16.0 23.0 0.00 0.00 0.00 37 1014.7
20260906002003 84 146 14.0 23.0 0.00 0.00 0.00 37 1014.8
20260906001503 84 150 12.0 23.0 0.00 0.00 0.00 37 1014.9
20260906001003 84 153 9.0 23.0 0.00 0.00 0.00 36 1014.8
20260906000503 85 154 12.0 23.0 0.00 0.00 0.00 35 1015.0
20260906000004 85 146 9.0 16.0 0.00 0.00 0.00 35 1014.7
20260905235503 86 146 9.0 16.0 0.00 0.00 0.00 33 1014.6
20260905235003 86 138 9.0 16.0 0.00 0.00 0.00 34 1014.6
20260905234503 86 144 9.0 16.0 0.00 0.00 0.00 34 1014.5
20260905234003 86 144 8.0 12.0 0.00 0.00 0.00 34 1014.3
20260905233504 86 144 7.0 10.0 0.00 0.00 0.00 33 1014.1
20260905233004 87 144 6.0 12.0 0.00 0.00 0.00 33 1014.1
20260905232504 87 150 6.0 13.0 0.00 0.00 0.00 34 1014.1
20260905232004 87 144 8.0 13.0 0.00 0.00 0.00 34 1014.1
20260905231503 87 145 8.0 13.0 0.00 0.00 0.00 34 1014.1
20260905231003 87 141 9.0 13.0 0.00 0.00 0.00 34 1014.1
20260905230503 87 141 9.0 13.0 0.00 0.00 0.00 34 1014.1
20260905230003 87 126 7.0 13.0 0.00 0.00 0.00 34 1014.1
20260905225503 86 125 7.0 12.0 0.00 0.00 0.00 35 1014.1
20260905225003 85 123 7.0 9.0 0.00 0.00 0.00 36 1014.0
20260905224503 85 116 6.0 10.0 0.00 0.00 0.00 37 1013.9
20260905224003 85 115 8.0 10.0 0.00 0.00 0.00 37 1014.0
20260905223503 86 120 7.0 9.0 0.00 0.00 0.00 35 1014.0
20260905223003 85 134 6.0 12.0 0.00 0.00 0.00 34 1014.0
20260905222503 85 151 6.0 12.0 0.00 0.00 0.00 34 1013.9
20260905222003 86 134 6.0 10.0 0.00 0.00 0.00 34 1013.9
20260905221503 86 144 6.0 10.0 0.00 0.00 0.00 35 1013.9
20260905221003 86 111 5.0 13.0 0.00 0.00 0.00 35 1013.8
20260905220503 85 107 6.0 18.0 0.00 0.00 0.00 36 1013.8
20260905220003 85 115 10.0 18.0 0.00 0.00 0.00 36 1013.8
20260905215502 87 119 13.0 18.0 0.00 0.00 0.00 32 1013.9
20260905215003 89 135 10.0 17.0 0.00 0.00 0.00 32 1014.0
20260905214503 90 120 10.0 17.0 0.00 0.00 0.00 30 1014.2
20260905214003 88 120 7.0 12.0 0.00 0.00 0.00 30 1014.2
20260905213503 88 127 7.0 9.0 0.00 0.00 0.00 31 1014.2
20260905213003 88 126 8.0 9.0 0.00 0.00 0.00 31 1014.2
20260905212503 89 121 7.0 9.0 0.00 0.00 0.00 30 1014.2
20260905212003 89 120 5.0 9.0 0.00 0.00 0.00 30 1014.2
20260905211503 88 121 7.0 9.0 0.00 0.00 0.00 31 1014.1
20260905211003 87 132 6.0 8.0 0.00 0.00 0.00 34 1014.2